Time,TemperatureF,DewpointF,PressureIn,WindDirection,WindDirectionDegrees,WindSpeedMPH,WindSpeedGustMPH,Humidity,HourlyPrecipIn,Conditions,Clouds,dailyrainin,SoftwareType,DateUTC
2013-02-14 00:01:00,21.0,17.0,-100.00,WSW,247,4.0,5.0,85,-99.99,,,-99.99,,2013-02-14 07:01:00,
2013-02-14 00:11:00,21.0,18.0,-100.00,WSW,244,6.0,7.0,86,-99.99,,,-99.99,,2013-02-14 07:11:00,
2013-02-14 00:21:00,21.0,18.0,-100.00,WSW,244,6.0,7.0,86,-99.99,,,-99.99,,2013-02-14 07:21:00,
2013-02-14 00:31:00,21.0,17.0,-100.00,WSW,258,7.0,7.0,85,-99.99,,,-99.99,,2013-02-14 07:31:00,
2013-02-14 00:41:00,21.0,17.0,-100.00,WSW,244,7.0,7.0,86,-99.99,,,-99.99,,2013-02-14 07:41:00,
2013-02-14 00:51:00,23.0,19.0,-100.00,WSW,241,7.0,8.0,84,-99.99,,,-99.99,,2013-02-14 07:51:00,
2013-02-14 01:01:00,24.0,19.0,-100.00,West,272,8.0,9.0,82,-99.99,,,-99.99,,2013-02-14 08:01:00,
2013-02-14 01:11:00,22.0,18.0,-100.00,WSW,257,8.0,8.0,84,-99.99,,,-99.99,,2013-02-14 08:11:00,
2013-02-14 01:21:00,22.0,19.0,-100.00,West,264,7.0,9.0,86,-99.99,,,-99.99,,2013-02-14 08:21:00,
2013-02-14 01:31:00,22.0,19.0,-100.00,WSW,253,8.0,8.0,85,-99.99,,,-99.99,,2013-02-14 08:31:00,
2013-02-14 01:43:00,23.0,19.0,-100.00,West,262,7.0,8.0,83,-99.99,,,-99.99,,2013-02-14 08:43:00,
2013-02-14 01:52:00,24.0,19.0,-100.00,WSW,255,6.0,7.0,81,-99.99,,,-99.99,,2013-02-14 08:52:00,
2013-02-14 02:01:00,23.0,19.0,-100.00,WSW,256,7.0,7.0,83,-99.99,,,-99.99,,2013-02-14 09:01:00,
2013-02-14 02:11:00,24.0,20.0,-100.00,WSW,257,6.0,6.0,82,-99.99,,,-99.99,,2013-02-14 09:11:00,
2013-02-14 02:21:00,24.0,20.0,-100.00,West,269,5.0,6.0,84,-99.99,,,-99.99,,2013-02-14 09:21:00,
2013-02-14 02:31:00,25.0,20.0,-100.00,West,271,6.0,6.0,81,-99.99,,,-99.99,,2013-02-14 09:31:00,
2013-02-14 02:41:00,26.0,21.0,-100.00,WNW,282,6.0,6.0,80,-99.99,,,-99.99,,2013-02-14 09:41:00,
2013-02-14 02:51:00,26.0,22.0,-100.00,WNW,291,4.0,6.0,82,-99.99,,,-99.99,,2013-02-14 09:51:00,
2013-02-14 03:01:00,26.0,22.0,-100.00,WNW,291,4.0,6.0,82,-99.99,,,-99.99,,2013-02-14 10:01:00,
2013-02-14 03:11:00,27.0,22.0,-100.00,WNW,285,6.0,6.0,79,-99.99,,,-99.99,,2013-02-14 10:11:00,
2013-02-14 03:21:00,27.0,22.0,-100.00,WNW,285,6.0,6.0,79,-99.99,,,-99.99,,2013-02-14 10:21:00,
2013-02-14 03:31:00,27.0,23.0,-100.00,WNW,290,7.0,8.0,83,-99.99,,,-99.99,,2013-02-14 10:31:00,
2013-02-14 03:41:00,27.0,23.0,-100.00,WNW,290,7.0,8.0,83,-99.99,,,-99.99,,2013-02-14 10:41:00,
2013-02-14 03:52:00,25.0,22.0,-100.00,West,270,5.0,6.0,85,-99.99,,,-99.99,,2013-02-14 10:52:00,
2013-02-14 04:01:00,25.0,22.0,-100.00,West,270,5.0,5.0,87,-99.99,,,-99.99,,2013-02-14 11:01:00,
2013-02-14 04:11:00,27.0,23.0,-100.00,West,281,9.0,10.0,83,-99.99,,,-99.99,,2013-02-14 11:11:00,
2013-02-14 04:21:00,25.0,21.0,-100.00,West,271,6.0,10.0,84,-99.99,,,-99.99,,2013-02-14 11:21:00,
2013-02-14 04:31:00,25.0,21.0,-100.00,West,281,6.0,8.0,84,-99.99,,,-99.99,,2013-02-14 11:31:00,
2013-02-14 04:40:00,25.0,22.0,-100.00,West,279,8.0,8.0,87,-99.99,,,-99.99,,2013-02-14 11:40:00,
2013-02-14 04:41:00,25.0,21.0,-100.00,WNW,284,7.0,8.0,84,-99.99,,,-99.99,,2013-02-14 11:41:00,
2013-02-14 04:52:00,25.0,21.0,-100.00,WNW,284,7.0,8.0,84,-99.99,,,-99.99,,2013-02-14 11:52:00,
2013-02-14 05:01:00,25.0,22.0,-100.00,West,260,6.0,7.0,86,-99.99,,,-99.99,,2013-02-14 12:01:00,
2013-02-14 05:11:00,25.0,22.0,-100.00,West,279,8.0,8.0,87,-99.99,,,-99.99,,2013-02-14 12:11:00,
2013-02-14 05:21:00,25.0,22.0,-100.00,West,279,8.0,8.0,87,-99.99,,,-99.99,,2013-02-14 12:21:00,
2013-02-14 05:31:00,25.0,22.0,-100.00,West,279,8.0,8.0,87,-99.99,,,-99.99,,2013-02-14 12:31:00,
2013-02-14 05:53:00,28.0,24.0,-100.00,WSW,255,6.0,8.0,86,-99.99,,,-99.99,,2013-02-14 12:53:00,
2013-02-14 06:01:00,27.0,24.0,-100.00,WNW,284,7.0,14.0,88,-99.99,,,-99.99,,2013-02-14 13:01:00,
2013-02-14 06:11:00,28.0,24.0,-100.00,West,281,6.0,11.0,85,-99.99,,,-99.99,,2013-02-14 13:11:00,
2013-02-14 06:21:00,28.0,24.0,-100.00,West,281,6.0,11.0,85,-99.99,,,-99.99,,2013-02-14 13:21:00,
2013-02-14 06:31:00,28.0,24.0,-100.00,West,281,6.0,11.0,85,-99.99,,,-99.99,,2013-02-14 13:31:00,
2013-02-14 06:41:00,29.0,24.0,-100.00,SE,137,2.0,8.0,81,-99.99,,,-99.99,,2013-02-14 13:41:00,
2013-02-14 06:51:00,29.0,23.0,-100.00,NNE,21,3.0,11.0,80,-99.99,,,-99.99,,2013-02-14 13:51:00,
2013-02-14 07:01:00,29.0,23.0,-100.00,ESE,107,3.0,8.0,80,-99.99,,,-99.99,,2013-02-14 14:01:00,
2013-02-14 07:11:00,29.0,23.0,-100.00,ESE,107,3.0,8.0,80,-99.99,,,-99.99,,2013-02-14 14:11:00,
2013-02-14 07:21:00,28.0,23.0,-100.00,SE,128,2.0,9.0,80,-99.99,,,-99.99,,2013-02-14 14:21:00,
2013-02-14 07:31:00,27.0,23.0,-100.00,East,84,10.0,14.0,84,-99.99,,,-99.99,,2013-02-14 14:31:00,
2013-02-14 07:41:00,27.0,24.0,-100.00,ESE,110,6.0,8.0,87,-99.99,,,-99.99,,2013-02-14 14:41:00,
2013-02-14 07:52:00,27.0,24.0,-100.00,ESE,110,6.0,8.0,87,-99.99,,,-99.99,,2013-02-14 14:52:00,
2013-02-14 08:01:00,27.0,23.0,-100.00,East,88,7.0,12.0,84,-99.99,,,-99.99,,2013-02-14 15:01:00,
2013-02-14 08:11:00,27.0,23.0,-100.00,East,88,7.0,12.0,84,-99.99,,,-99.99,,2013-02-14 15:11:00,
2013-02-14 08:21:00,27.0,23.0,-100.00,NNW,335,3.0,7.0,82,-99.99,,,-99.99,,2013-02-14 15:21:00,
2013-02-14 08:31:00,27.0,23.0,-100.00,NNW,335,3.0,7.0,82,-99.99,,,-99.99,,2013-02-14 15:31:00,
2013-02-14 08:41:00,28.0,23.0,-100.00,WNW,289,3.0,7.0,79,-99.99,,,-99.99,,2013-02-14 15:41:00,
2013-02-14 08:51:00,28.0,22.0,-100.00,West,268,6.0,9.0,78,-99.99,,,-99.99,,2013-02-14 15:51:00,
2013-02-14 09:01:00,28.0,22.0,-100.00,West,268,6.0,9.0,78,-99.99,,,-99.99,,2013-02-14 16:01:00,
2013-02-14 09:11:00,29.0,22.0,-100.00,NW,309,9.0,12.0,74,-99.99,,,-99.99,,2013-02-14 16:11:00,
2013-02-14 09:21:00,29.0,22.0,-100.00,NW,309,9.0,12.0,74,-99.99,,,-99.99,,2013-02-14 16:21:00,
2013-02-14 09:31:00,31.0,23.0,-100.00,NW,326,3.0,5.0,70,-99.99,,,-99.99,,2013-02-14 16:31:00,
2013-02-14 09:41:00,30.0,23.0,-100.00,NE,35,8.0,14.0,74,-99.99,,,-99.99,,2013-02-14 16:41:00,
2013-02-14 09:51:00,29.0,23.0,-100.00,NNE,19,7.0,12.0,76,-99.99,,,-99.99,,2013-02-14 16:51:00,
2013-02-14 10:01:00,29.0,22.0,-100.00,North,355,10.0,14.0,74,-99.99,,,-99.99,,2013-02-14 17:01:00,
2013-02-14 10:11:00,30.0,22.0,-100.00,North,10,7.0,10.0,72,-99.99,,,-99.99,,2013-02-14 17:11:00,
2013-02-14 10:21:00,30.0,22.0,-100.00,North,10,7.0,10.0,72,-99.99,,,-99.99,,2013-02-14 17:21:00,
2013-02-14 10:31:00,31.0,23.0,-100.00,NE,43,4.0,6.0,69,-99.99,,,-99.99,,2013-02-14 17:31:00,
2013-02-14 10:41:00,31.0,23.0,-100.00,NE,43,4.0,6.0,69,-99.99,,,-99.99,,2013-02-14 17:41:00,
2013-02-14 10:52:00,30.0,23.0,-100.00,ESE,122,4.0,5.0,74,-99.99,,,-99.99,,2013-02-14 17:52:00,
2013-02-14 11:01:00,30.0,23.0,-100.00,East,84,4.0,5.0,73,-99.99,,,-99.99,,2013-02-14 18:01:00,
2013-02-14 11:11:00,30.0,23.0,-100.00,East,84,4.0,5.0,73,-99.99,,,-99.99,,2013-02-14 18:11:00,
2013-02-14 11:22:00,31.0,23.0,-100.00,East,83,6.0,9.0,71,-99.99,,,-99.99,,2013-02-14 18:22:00,
2013-02-14 11:31:00,30.0,23.0,-100.00,ENE,72,8.0,9.0,75,-99.99,,,-99.99,,2013-02-14 18:31:00,
2013-02-14 11:41:00,30.0,24.0,-100.00,NE,55,8.0,9.0,77,-99.99,,,-99.99,,2013-02-14 18:41:00,
2013-02-14 11:51:00,30.0,24.0,-100.00,NE,55,8.0,9.0,77,-99.99,,,-99.99,,2013-02-14 18:51:00,
2013-02-14 12:01:00,31.0,23.0,-100.00,East,93,6.0,7.0,72,-99.99,,,-99.99,,2013-02-14 19:01:00,
2013-02-14 12:11:00,31.0,23.0,-100.00,East,93,6.0,7.0,72,-99.99,,,-99.99,,2013-02-14 19:11:00,
2013-02-14 12:21:00,30.0,23.0,-100.00,East,94,6.0,7.0,74,-99.99,,,-99.99,,2013-02-14 19:21:00,
2013-02-14 12:31:00,32.0,23.0,-100.00,East,99,7.0,7.0,70,-99.99,,,-99.99,,2013-02-14 19:31:00,
2013-02-14 12:41:00,32.0,23.0,-100.00,East,99,7.0,7.0,70,-99.99,,,-99.99,,2013-02-14 19:41:00,
2013-02-14 12:51:00,31.0,23.0,-100.00,East,83,6.0,9.0,71,-99.99,,,-99.99,,2013-02-14 19:51:00,
2013-02-14 13:01:00,31.0,23.0,-100.00,East,83,6.0,9.0,71,-99.99,,,-99.99,,2013-02-14 20:01:00,
2013-02-14 13:11:00,32.0,23.0,-100.00,East,83,6.0,7.0,68,-99.99,,,-99.99,,2013-02-14 20:11:00,
2013-02-14 13:21:00,32.0,22.0,-100.00,ENE,76,6.0,7.0,68,-99.99,,,-99.99,,2013-02-14 20:21:00,
2013-02-14 13:31:00,32.0,22.0,-100.00,ENE,76,6.0,7.0,68,-99.99,,,-99.99,,2013-02-14 20:31:00,
2013-02-14 13:41:00,31.0,22.0,-100.00,East,81,6.0,9.0,69,-99.99,,,-99.99,,2013-02-14 20:41:00,
2013-02-14 13:52:00,31.0,22.0,-100.00,ENE,68,9.0,12.0,70,-99.99,,,-99.99,,2013-02-14 20:52:00,
2013-02-14 14:01:00,31.0,22.0,-100.00,East,81,6.0,8.0,67,-99.99,,,-99.99,,2013-02-14 21:01:00,
2013-02-14 14:11:00,31.0,22.0,-100.00,East,81,6.0,8.0,67,-99.99,,,-99.99,,2013-02-14 21:11:00,
2013-02-14 14:21:00,31.0,22.0,-100.00,East,81,6.0,8.0,67,-99.99,,,-99.99,,2013-02-14 21:21:00,
2013-02-14 14:31:00,31.0,24.0,-100.00,ENE,70,8.0,9.0,72,-99.99,,,-99.99,,2013-02-14 21:31:00,
2013-02-14 14:41:00,31.0,24.0,-100.00,ENE,70,8.0,9.0,72,-99.99,,,-99.99,,2013-02-14 21:41:00,
2013-02-14 14:51:00,31.0,22.0,-100.00,East,86,4.0,5.0,68,-99.99,,,-99.99,,2013-02-14 21:51:00,
2013-02-14 15:01:00,32.0,23.0,-100.00,East,90,8.0,9.0,68,-99.99,,,-99.99,,2013-02-14 22:01:00,
2013-02-14 15:11:00,32.0,23.0,-100.00,SE,130,4.0,6.0,68,-99.99,,,-99.99,,2013-02-14 22:11:00,
2013-02-14 15:21:00,32.0,23.0,-100.00,SE,130,4.0,6.0,68,-99.99,,,-99.99,,2013-02-14 22:21:00,
2013-02-14 15:31:00,32.0,24.0,-100.00,ESE,123,6.0,9.0,70,-99.99,,,-99.99,,2013-02-14 22:31:00,
2013-02-14 15:41:00,32.0,24.0,-100.00,ESE,123,6.0,9.0,70,-99.99,,,-99.99,,2013-02-14 22:41:00,
2013-02-14 15:51:00,32.0,24.0,-100.00,SE,138,5.0,6.0,71,-99.99,,,-99.99,,2013-02-14 22:51:00,
2013-02-14 16:01:00,32.0,24.0,-100.00,SE,138,5.0,6.0,71,-99.99,,,-99.99,,2013-02-14 23:01:00,
2013-02-14 16:11:00,30.0,24.0,-100.00,ESE,123,5.0,6.0,76,-99.99,,,-99.99,,2013-02-14 23:11:00,
2013-02-14 16:21:00,30.0,24.0,-100.00,ESE,111,5.0,6.0,76,-99.99,,,-99.99,,2013-02-14 23:21:00,
2013-02-14 16:31:00,30.0,24.0,-100.00,ENE,78,7.0,7.0,77,-99.99,,,-99.99,,2013-02-14 23:31:00,
2013-02-14 16:41:00,30.0,24.0,-100.00,ENE,78,7.0,7.0,77,-99.99,,,-99.99,,2013-02-14 23:41:00,
2013-02-14 16:52:00,30.0,23.0,-100.00,East,89,4.0,5.0,76,-99.99,,,-99.99,,2013-02-14 23:52:00,
2013-02-14 17:01:00,30.0,23.0,-100.00,East,89,4.0,5.0,76,-99.99,,,-99.99,,2013-02-15 00:01:00,
2013-02-14 17:11:00,30.0,23.0,-100.00,NE,54,4.0,6.0,76,-99.99,,,-99.99,,2013-02-15 00:11:00,
2013-02-14 17:21:00,30.0,23.0,-100.00,NE,54,4.0,6.0,76,-99.99,,,-99.99,,2013-02-15 00:21:00,
2013-02-14 17:31:00,29.0,23.0,-100.00,ENE,74,7.0,7.0,79,-99.99,,,-99.99,,2013-02-15 00:31:00,
2013-02-14 17:41:00,29.0,24.0,-100.00,ENE,77,6.0,7.0,78,-99.99,,,-99.99,,2013-02-15 00:41:00,
2013-02-14 17:51:00,30.0,23.0,-100.00,ESE,104,4.0,5.0,77,-99.99,,,-99.99,,2013-02-15 00:51:00,
2013-02-14 18:01:00,29.0,23.0,-100.00,ENE,76,5.0,5.0,77,-99.99,,,-99.99,,2013-02-15 01:01:00,
2013-02-14 18:11:00,28.0,23.0,-100.00,East,88,4.0,5.0,80,-99.99,,,-99.99,,2013-02-15 01:11:00,
2013-02-14 18:21:00,28.0,23.0,-100.00,East,88,4.0,5.0,80,-99.99,,,-99.99,,2013-02-15 01:21:00,
2013-02-14 18:31:00,28.0,23.0,-100.00,East,88,4.0,5.0,80,-99.99,,,-99.99,,2013-02-15 01:31:00,
2013-02-14 18:41:00,27.0,22.0,-100.00,East,100,4.0,4.0,83,-99.99,,,-99.99,,2013-02-15 01:41:00,
2013-02-14 18:51:00,26.0,22.0,-100.00,ESE,110,3.0,4.0,84,-99.99,,,-99.99,,2013-02-15 01:51:00,
2013-02-14 19:01:00,26.0,22.0,-100.00,East,86,2.0,4.0,84,-99.99,,,-99.99,,2013-02-15 02:01:00,
2013-02-14 19:11:00,26.0,22.0,-100.00,ESE,121,2.0,3.0,83,-99.99,,,-99.99,,2013-02-15 02:11:00,
2013-02-14 19:21:00,26.0,22.0,-100.00,SE,136,2.0,2.0,83,-99.99,,,-99.99,,2013-02-15 02:21:00,
2013-02-14 19:31:00,25.0,21.0,-100.00,SSW,202,4.0,5.0,83,-99.99,,,-99.99,,2013-02-15 02:31:00,
2013-02-14 19:41:00,25.0,21.0,-100.00,SSW,202,4.0,5.0,83,-99.99,,,-99.99,,2013-02-15 02:41:00,
2013-02-14 19:51:00,23.0,20.0,-100.00,SSW,196,1.0,1.0,87,-99.99,,,-99.99,,2013-02-15 02:51:00,
2013-02-14 20:01:00,23.0,20.0,-100.00,SW,229,2.0,2.0,86,-99.99,,,-99.99,,2013-02-15 03:01:00,
2013-02-14 20:11:00,24.0,21.0,-100.00,SW,233,3.0,4.0,87,-99.99,,,-99.99,,2013-02-15 03:11:00,
2013-02-14 20:21:00,24.0,21.0,-100.00,SW,233,3.0,4.0,87,-99.99,,,-99.99,,2013-02-15 03:21:00,
2013-02-14 20:31:00,23.0,20.0,-100.00,SSW,206,2.0,4.0,88,-99.99,,,-99.99,,2013-02-15 03:31:00,
2013-02-14 20:41:00,22.0,19.0,-100.00,WNW,283,4.0,4.0,88,-99.99,,,-99.99,,2013-02-15 03:41:00,
2013-02-14 20:51:00,22.0,19.0,-100.00,North,0,0.0,1.0,88,-99.99,,,-99.99,,2013-02-15 03:51:00,
2013-02-14 21:01:00,22.0,20.0,-100.00,SSW,203,2.0,2.0,90,-99.99,,,-99.99,,2013-02-15 04:01:00,
2013-02-14 21:11:00,22.0,20.0,-100.00,SSW,203,2.0,2.0,90,-99.99,,,-99.99,,2013-02-15 04:11:00,
2013-02-14 21:21:00,22.0,20.0,-100.00,SSW,203,2.0,2.0,90,-99.99,,,-99.99,,2013-02-15 04:21:00,
2013-02-14 21:31:00,20.0,18.0,-100.00,SW,231,2.0,3.0,90,-99.99,,,-99.99,,2013-02-15 04:31:00,
2013-02-14 21:41:00,20.0,18.0,-100.00,WSW,245,3.0,4.0,92,-99.99,,,-99.99,,2013-02-15 04:41:00,
2013-02-14 21:51:00,20.0,18.0,-100.00,WSW,245,3.0,4.0,92,-99.99,,,-99.99,,2013-02-15 04:51:00,
2013-02-14 22:01:00,21.0,18.0,-100.00,WSW,248,2.0,4.0,88,-99.99,,,-99.99,,2013-02-15 05:01:00,
2013-02-14 22:11:00,19.0,17.0,-100.00,West,259,3.0,4.0,89,-99.99,,,-99.99,,2013-02-15 05:11:00,
2013-02-14 22:22:00,19.0,17.0,-100.00,WSW,241,3.0,4.0,90,-99.99,,,-99.99,,2013-02-15 05:22:00,
2013-02-14 22:32:00,19.0,17.0,-100.00,WSW,241,3.0,4.0,90,-99.99,,,-99.99,,2013-02-15 05:32:00,
2013-02-14 22:41:00,20.0,17.0,-100.00,West,277,4.0,4.0,87,-99.99,,,-99.99,,2013-02-15 05:41:00,
2013-02-14 22:52:00,21.0,19.0,-100.00,NW,316,6.0,7.0,91,-99.99,,,-99.99,,2013-02-15 05:52:00,
2013-02-14 23:01:00,21.0,19.0,-100.00,NW,316,6.0,7.0,91,-99.99,,,-99.99,,2013-02-15 06:01:00,
2013-02-14 23:11:00,22.0,19.0,-100.00,West,272,4.0,6.0,90,-99.99,,,-99.99,,2013-02-15 06:11:00,
2013-02-14 23:21:00,22.0,19.0,-100.00,West,272,4.0,6.0,90,-99.99,,,-99.99,,2013-02-15 06:21:00,
2013-02-14 23:31:00,22.0,19.0,-100.00,West,272,4.0,6.0,90,-99.99,,,-99.99,,2013-02-15 06:31:00,
2013-02-14 23:42:00,22.0,19.0,-100.00,WSW,253,8.0,9.0,86,-99.99,,,-99.99,,2013-02-15 06:42:00,
2013-02-14 23:51:00,22.0,19.0,-100.00,West,279,5.0,7.0,87,-99.99,,,-99.99,,2013-02-15 06:51:00,